DL2GFH-3 Weather Reports


Display with metric or nautical units.
time (UTC)temp
F
wind
direction
speed
MPH
gust
MPH
rain 1hr
in
rain 24hr
in
rain mn
in
humidity
%
barometer
mb
20260502130121 76 0 0.0 0.0 0.00 0.00 0.00 22 1019.7
20260502123110 77 0 0.0 0.0 0.00 0.00 0.00 21 1020.1
20260502121605 78 0 0.0 0.0 0.00 0.00 0.00 21 1020.2
20260502114554 79 0 0.0 0.0 0.00 0.00 0.00 20 1020.6
20260502113049 79 0 0.0 0.0 0.00 0.00 0.00 20 1020.8
20260502111543 79 0 0.0 0.0 0.00 0.00 0.00 19 1020.9
20260502104533 79 0 0.0 0.0 0.00 0.00 0.00 19 1021.1
20260502103027 79 0 0.0 0.0 0.00 0.00 0.00 19 1021.3
20260502101522 80 0 0.0 0.0 0.00 0.00 0.00 19 1021.5
20260502091500 80 0 0.0 0.0 0.00 0.00 0.00 18 1022.0
20260502071417 77 0 0.0 0.0 0.00 0.00 0.00 19 1022.4
20260502065911 75 0 0.0 0.0 0.00 0.00 0.00 20 1022.5
20260502064406 75 0 0.0 0.0 0.00 0.00 0.00 20 1022.5
20260502062900 71 0 0.0 0.0 0.00 0.00 0.00 23 1022.7
20260502061355 70 0 0.0 0.0 0.00 0.00 0.00 23 1022.7
20260502055850 69 0 0.0 0.0 0.00 0.00 0.00 24 1022.7
20260502054344 66 0 0.0 0.0 0.00 0.00 0.00 25 1022.9
20260502052839 65 0 0.0 0.0 0.00 0.00 0.00 26 1022.9
20260502051333 64 0 0.0 0.0 0.00 0.00 0.00 26 1022.9
20260502045828 63 0 0.0 0.0 0.00 0.00 0.00 27 1022.8
20260502044323 64 0 0.0 0.0 0.00 0.00 0.00 26 1022.8
20260502042817 66 0 0.0 0.0 0.00 0.00 0.00 25 1022.7
20260502041312 68 0 0.0 0.0 0.00 0.00 0.00 23 1022.7
20260502035806 71 0 0.0 0.0 0.00 0.00 0.00 21 1022.6
20260502034301 68 0 0.0 0.0 0.00 0.00 0.00 24 1022.6
20260502032755 60 0 0.0 0.0 0.00 0.00 0.00 29 1022.8
20260502031250 60 0 0.0 0.0 0.00 0.00 0.00 29 1022.9
20260502025745 60 0 0.0 0.0 0.00 0.00 0.00 29 1023.0
20260502024239 60 0 0.0 0.0 0.00 0.00 0.00 29 1022.9
20260502022734 61 0 0.0 0.0 0.00 0.00 0.00 29 1023.0
20260502021228 61 0 0.0 0.0 0.00 0.00 0.00 29 1023.0
20260502015723 61 0 0.0 0.0 0.00 0.00 0.00 29 1023.0
20260502014218 61 0 0.0 0.0 0.00 0.00 0.00 29 1023.1
20260502012712 62 0 0.0 0.0 0.00 0.00 0.00 29 1023.2
20260502011207 62 0 0.0 0.0 0.00 0.00 0.00 29 1023.1
20260502005701 62 0 0.0 0.0 0.00 0.00 0.00 29 1023.2
20260502004156 62 0 0.0 0.0 0.00 0.00 0.00 28 1023.3
20260502002650 62 0 0.0 0.0 0.00 0.00 0.00 28 1023.4
20260502001145 62 0 0.0 0.0 0.00 0.00 0.00 28 1023.4
20260501235640 63 0 0.0 0.0 0.00 0.00 0.00 28 1023.4
20260501234134 63 0 0.0 0.0 0.00 0.00 0.00 28 1023.5
20260501232629 63 0 0.0 0.0 0.00 0.00 0.00 28 1023.5
20260501231123 63 0 0.0 0.0 0.00 0.00 0.00 28 1023.5
20260501225618 63 0 0.0 0.0 0.00 0.00 0.00 28 1023.5
20260501224113 64 0 0.0 0.0 0.00 0.00 0.00 28 1023.5
20260501222607 64 0 0.0 0.0 0.00 0.00 0.00 28 1023.4
20260501221102 64 0 0.0 0.0 0.00 0.00 0.00 28 1023.4
20260501215556 64 0 0.0 0.0 0.00 0.00 0.00 28 1023.4
20260501214051 64 0 0.0 0.0 0.00 0.00 0.00 27 1023.4
20260501212546 65 0 0.0 0.0 0.00 0.00 0.00 27 1023.5
20260501211040 65 0 0.0 0.0 0.00 0.00 0.00 27 1023.5
20260501205535 65 0 0.0 0.0 0.00 0.00 0.00 27 1023.4
20260501204029 66 0 0.0 0.0 0.00 0.00 0.00 27 1023.5
20260501202524 66 0 0.0 0.0 0.00 0.00 0.00 27 1023.5
20260501201018 66 0 0.0 0.0 0.00 0.00 0.00 27 1023.4
20260501195513 66 0 0.0 0.0 0.00 0.00 0.00 26 1023.3
20260501194008 67 0 0.0 0.0 0.00 0.00 0.00 26 1023.2
20260501192502 67 0 0.0 0.0 0.00 0.00 0.00 26 1023.1
20260501190957 67 0 0.0 0.0 0.00 0.00 0.00 26 1023.0
20260501185451 68 0 0.0 0.0 0.00 0.00 0.00 25 1022.9
20260501183946 68 0 0.0 0.0 0.00 0.00 0.00 25 1022.8
20260501182441 68 0 0.0 0.0 0.00 0.00 0.00 25 1022.7
20260501180935 69 0 0.0 0.0 0.00 0.00 0.00 25 1022.5
20260501175430 69 0 0.0 0.0 0.00 0.00 0.00 24 1022.6
20260501173924 69 0 0.0 0.0 0.00 0.00 0.00 24 1022.5
20260501172419 70 0 0.0 0.0 0.00 0.00 0.00 24 1022.5
20260501170913 70 0 0.0 0.0 0.00 0.00 0.00 23 1022.5
20260501165408 71 0 0.0 0.0 0.00 0.00 0.00 23 1022.4
20260501163903 72 0 0.0 0.0 0.00 0.00 0.00 22 1022.5
20260501162357 73 0 0.0 0.0 0.00 0.00 0.00 22 1022.5
20260501160852 73 0 0.0 0.0 0.00 0.00 0.00 21 1022.6
20260501155346 70 0 0.0 0.0 0.00 0.00 0.00 23 1022.7
20260501153841 70 0 0.0 0.0 0.00 0.00 0.00 23 1022.7
20260501152336 70 0 0.0 0.0 0.00 0.00 0.00 23 1022.8
20260501150830 0 0 0.0 0.0 0.00 0.00 0.00